Tracking 27420 objects as of 28-May-2023
HD Live streaming from Space Station
objects crossing your sky now

LEMUR 2 SPACEGUS

Track LEMUR 2 SPACEGUS now!
10-day predictions
LEMUR 2 SPACEGUS is classified as:


NORAD ID: 56187
Int'l Code: 2023-054K
Perigee: 496.5 km
Apogee: 511.6 km
Inclination: 97.4 °
Period: 94.6 minutes
Semi major axis: 6875 km
RCS: Unknown
Launch date: April 15, 2023
Source: United States (US)
Launch site: AIR FORCE WESTERN TEST RANGE (AFWTR)

Uplink (MHz):
Downlink (MHz): 402.790
Beacon (MHz):
Mode:
Call sign:
Status: Unknown

Your satellite tracking list
Your tracking list is empty




NASA's NSSDC Master Catalog

Two Line Element Set (TLE):
1 56187U 23054K   23147.66163635  .00011659  00000-0  49815-3 0  9996
2 56187  97.4002  42.8405 0010979  94.6894 265.5597 15.22965478  7050
Source of the keplerian elements: AFSPC